Location: Auckland
(36.8670°S, 174.7670°E)
Time: 16:16:21
(UTC+12:00)

Cosmos 1869 Rocket - Pass Details

Date: 24 January 2019
Orbit: 604 x 635 km, 82.5° (Epoch: 18 April)

Event Time Altitude Azimuth Distance (km) Brightness Sun altitude
Rises 22:29:31 0° 180° (S) 2,913 7.7 -19.2°
Reaches altitude 10° 22:31:52 10° 174° (S) 1,995 6.7 -19.5°
Maximum altitude 22:36:06 45° 100° (E) 846 4.0 -20.1°
Enters shadow 22:36:28 43° 85° (E) 860 3.9 -20.2°
